カタログに戻る

THORAD AGENA D DEB

運用中LEO
NORAD 4745·DEBRIS·🇺🇸 United States

打ち上げ Apr 8, 1970 から Vandenberg Space Force Base

Loading…

次のパス (今後24時間)

TLE

最新Source: Space-Track

元期: Sep 14, 2026, 10:25 UTC

1 04745U 70025CU  26257.43428172  .00000707  00000-0  52316-3 0  9991
2 04745 100.1054 246.4001 0025863 117.5383 242.8409 13.99079623833756

AllMySatでTHORAD AGENA D DEBをリアルタイム追跡

Download on the App Store